STARLINK-31619 (59531 NORAD) Tracking and Keplerian Element Data

This shows tracking and keplerian element data for the satellite.

Feedback or suggestion? Click here.




ElementValue
Catalog59531
NameSTARLINK-31619
Epoch Orbit906
Epoch Day159.84835663
Epoch Year2024
RAAN4.098
Inclination43.0006
Eccentricity0.0001672
Argument of Perigee284.6177
Mean Anonmoly75.4494
Mean Motion15.40649522
Decay Rate-0.00017714
L11 59531U 24073W 24159.84835663 -.00017714 00000+0 -41846-3 0 9990
L22 59531 43.0006 4.0980 0001672 284.6177 75.4494 15.40649522 9066



Live tracking and technical data element details for STARLINK-31619 (NORAD 59531). STARLINK-31619 can be tracked NOW for your location showing map with azimuth and elevation plus other details from your city location.







IsCatalogInMostPopularTable: catalog: 59531, numindb: 11
Update: records affected: 1



GetName: 59531 STARLINK-31619

Hit Count: updated at: Fri, 14 Jun 2024 19:43:19 GMT